Regional Weather Roundup
Issued by NWS

Home | Current Version | Previous Version | Graphics & Text | Print | Product List | Glossary On
Versions: 1 2 3 4 5 6 7 8 9 10 11 12 13 14 15 16 17 18 19 20 21 22 23 24 25 26 27 28 29 30 31 32 33 34 35 36 37 38 39 40 41 42 43 44 45 46 47 48 49 50
000
ASUS43 KDTX 251201
RWRMI
MICHIGAN HOURLY REGIONAL WEATHER ROUNDUP
NATIONAL WEATHER SERVICE DETROIT/PONTIAC MI
800 AM EDT FRI JUL 25 2014

NOTE: "FAIR" INDICATES FEW OR NO CLOUDS BELOW 12,000 FEET WITH NO
SIGNIFICANT WEATHER AND/OR OBSTRUCTION TO VISIBILITY.

MIZ047>049-052>055-059>063-066>070-074>076-081>083-251300-
SOUTHEAST LOWER MICHIGAN

CITY           SKY/WX    TMP DP  RH WIND       PRES   REMARKS
ADRIAN         MOSUNNY   57  53  86 SW6       30.10S
6HR MIN TEMP:  50; 6HR MAX TEMP:  57;

ALMA           SUNNY     56  52  88 CALM      30.07R
6HR MIN TEMP:  49; 6HR MAX TEMP:  56;

ANN ARBOR      SUNNY     56  53  90 CALM      30.08S
BAD AXE        SUNNY     56  52  86 CALM      30.05S
6HR MIN TEMP:  47; 6HR MAX TEMP:  56;

CARO           SUNNY     58  56  95 CALM      30.05R
DETROIT CITY   SUNNY     65  52  62 SW6       30.07F
6HR MIN TEMP:  59; 6HR MAX TEMP:  65;

DETROIT        MOSUNNY   59  53  80 S6        30.08F
6HR MIN TEMP:  55; 6HR MAX TEMP:  61;

FLINT          SUNNY     60  53  77 S3        30.07R
6HR MIN TEMP:  52; 6HR MAX TEMP:  60;

GROSSE ILE     SUNNY     63  54  72 SW5       30.07F
HILLSDALE      MOSUNNY   60  54  80 SW7       30.10R
HOWELL         SUNNY     56  54  90 CALM      30.08R

CITY           SKY/WX    TMP DP  RH WIND       PRES   REMARKS
JACKSON        SUNNY     58  52  80 SW6       30.08R
6HR MIN TEMP:  50; 6HR MAX TEMP:  58;

LAMBERTVILLE   SUNNY     59  55  88 CALM      30.10S
LANSING        MOSUNNY   59  52  77 MISG      30.09R
6HR MIN TEMP:  51; 6HR MAX TEMP:  59;

LAPEER         FAIR      57  52  83 CALM      30.07R
MASON          MOSUNNY   53  51  93 S3        30.06S
MONROE         SUNNY     59  54  82 SW5       30.07F
MT. CLEMENS    MOSUNNY   63  53  69 SW8       30.05F
6HR MIN TEMP:  52; 6HR MAX TEMP:  63;

PONTIAC        MOSUNNY   59  52  77 CALM      30.07R
6HR MIN TEMP:  53; 6HR MAX TEMP:  59;

PORT HOPE        N/A     59  50  72 SW7       30.02F
6HR MIN TEMP:  56; 6HR MAX TEMP:  59;

PORT HURON     SUNNY     54  54 100 CALM      30.06F
TRI CITIES     SUNNY     59  53  80 SW7       30.07R
6HR MIN TEMP:  55; 6HR MAX TEMP:  60;

TROY           SUNNY     59  53  78 SW5       30.08S
SAGINAW HB     SUNNY     59  55  88 S5        30.05R
$$
MIZ043>046-050>051-056>058-064>065-071>073-077>080-251300-
SOUTHWEST LOWER MICHIGAN

CITY           SKY/WX    TMP DP  RH WIND       PRES   REMARKS
BATTLE CREEK   MOSUNNY   59  52  77 S3        30.07S
6HR MIN TEMP:  53; 6HR MAX TEMP:  59;

BENTON HARBOR  PTSUNNY   54  51  90 CALM      30.06S
6HR MIN TEMP:  46; 6HR MAX TEMP:  54;

BIG RAPIDS     MOSUNNY   51  51 100 CALM      30.06R
6HR MIN TEMP:  48; 6HR MAX TEMP:  52;

COLDWATER      SUNNY     60  56  86 SW3       30.07S
6HR MIN TEMP:  52; 6HR MAX TEMP:  60;

FREMONT        PTSUNNY   55  53  90 CALM      30.05F
6HR MIN TEMP:  49; 6HR MAX TEMP:  55;

HOLLAND        PTSUNNY   57  52  83 SE5       30.05F
6HR MIN TEMP:  50; 6HR MAX TEMP:  57;

GRAND RAPIDS   PTSUNNY   56  52  86 CALM      30.08R
6HR MIN TEMP:  53; 6HR MAX TEMP:  57;

IONIA          FAIR      55  51  86 W3        30.07R
KALAMAZOO      MOSUNNY   59  53  80 S3        30.06F
6HR MIN TEMP:  51; 6HR MAX TEMP:  59;

LUDINGTON      CLOUDY    62  53  72 SW7       30.05R
6HR MIN TEMP:  55; 6HR MAX TEMP:  62;

MARSHALL       SUNNY     58  53  85 CALM      30.07R
MOUNT PLEASANT SUNNY     58  55  89 W3        30.06R
6HR MIN TEMP:  49; 6HR MAX TEMP:  58;

MUSKEGON       CLOUDY    59  51  75 SE3       30.06R
6HR MIN TEMP:  52; 6HR MAX TEMP:  60;

SOUTH HAVEN    PTSUNNY   54  53  95 CALM      30.06R
$$
MIZ016>042-251300-
NORTHERN LOWER MICHIGAN

CITY           SKY/WX    TMP DP  RH WIND       PRES   REMARKS
ALPENA         SUNNY     55  51  86 CALM      30.01S
6HR MIN TEMP:  46; 6HR MAX TEMP:  55;

BEAVER ISLAND  CLOUDY    62  53  72 SW12G17   29.99R
6HR MIN TEMP:  56; 6HR MAX TEMP:  62;

BELLAIRE       CLOUDY    53  52  94 CALM      30.03R
6HR MIN TEMP:  44; 6HR MAX TEMP:  53;

CADILLAC       PTSUNNY   53  49  86 S3        30.05R
CHARLEVOIX     CLOUDY    54  53  94 SE3       30.04R
6HR MIN TEMP:  51; 6HR MAX TEMP:  54;

FRANKFORT      PTSUNNY   63  52  67 SW5       30.03R
GAYLORD        SUNNY     52  47  83 SW3       30.03R
6HR MIN TEMP:  45; 6HR MAX TEMP:  52;

GRAYLING       SUNNY     51  50  99 CALM      30.04R
6HR MIN TEMP:  40; 6HR MAX TEMP:  51;

HARBOR SPRINGS MOSUNNY   59  51  73 SW5       30.01R
HOUGHTON LAKE  SUNNY     59  50  72 W9        30.06R
6HR MIN TEMP:  42; 6HR MAX TEMP:  59;

MANISTEE       CLOUDY    54  48  82 CALM      30.05R
OSCODA         SUNNY     55  52  90 CALM      30.01S
PELLSTON       SUNNY     53  49  86 CALM      30.00R
6HR MIN TEMP:  42; 6HR MAX TEMP:  53;

ROGERS CITY    SUNNY     57  51  81 SW9       30.01R
TRAVERSE CITY  CLOUDY    60  46  59 VRB5      30.01R
6HR MIN TEMP:  52; 6HR MAX TEMP:  60;

$$
MIZ007>008-015-251300-
EASTERN UPPER MICHIGAN

CITY           SKY/WX    TMP DP  RH WIND       PRES   REMARKS
KINROSS        PTSUNNY   59  55  88 SW5       29.97R
6HR MIN TEMP:  52; 6HR MAX TEMP:  59;

MACKINAC ISLAN CLOUDY    59  54  82 SW7       29.98R
6HR MIN TEMP:  55; 6HR MAX TEMP:  60;

NEWBERRY       CLOUDY    58  52  79 SW12G18   29.96R
6HR MIN TEMP:  52; 6HR MAX TEMP:  58;

S. S. MARIE    MOSUNNY   56  51  84 CALM      29.96R
6HR MIN TEMP:  49; 6HR MAX TEMP:  56;

MUNISING         N/A     61  49  64 S9        29.92S
6HR MIN TEMP:  59; 6HR MAX TEMP:  61;

$$
MIZ004>006-011>014-085-251300-
CENTRAL UPPER MICHIGAN

CITY           SKY/WX    TMP DP  RH WIND       PRES   REMARKS
MANISTIQUE     PTSUNNY   59  55  88 S8        29.95F
6HR MIN TEMP:  56; 6HR MAX TEMP:  59;

ESCANABA       CLOUDY    59  46  63 S3        29.96R
6HR MIN TEMP:  54; 6HR MAX TEMP:  59;

MENOMINEE      CLOUDY    61  50  67 SW7       29.98R
6HR MIN TEMP:  61; 6HR MAX TEMP:  64;

SAWYER-GWINN   SUNNY     57  52  82 S3        29.94F
$$
MIZ001>003-009>011-084-251300-
WESTERN UPPER MICHIGAN

CITY           SKY/WX    TMP DP  RH WIND       PRES   REMARKS
IRON MOUNTAIN  CLOUDY    61  55  81 S3        29.95R
6HR MIN TEMP:  58; 6HR MAX TEMP:  61;

HOUGHTON       PTSUNNY   60  55  83 S3        29.89R
6HR MIN TEMP:  52; 6HR MAX TEMP:  63;

COPPER HARBOR    N/A     64  53  67 VRB5      29.87S
6HR MIN TEMP:  61; 6HR MAX TEMP:  64;

$$

ABBREVIATIONS USED IN REMARKS
   TC - TEMPERATURE IN CELSIUS
  WCI - WIND CHILL INDEX
   HX - HEAT INDEX
  VSB - VISIBILITY




USA.gov is the U.S. government's official web portal to all federal, state and local government web resources and services.